Погода в Никольском

Россия / Костромская область     57°48′23″N   41°06′13″E
темп.,
°C
ветер,
м/с
пор.,
м/с
влажн.,
%
обл.,
%
осадки,
мм/ч
давл.,
гПа
погр.,
м
17 апреля, сб
сб1700:00+6всв511765 0.0 1028380
03:00+4всв512785 0.0 1028326
06:00+4всв512754 0.0 1028344
09:00+8в610520 0.0 1028604
12:00+12в67393 0.0 10281028
15:00+13всв67365 0.0 10271227
18:00+11всв58472 0.0 1026588
21:00+6всв310710 0.0 1027220
18 апреля, вс
вс1800:00+5всв310800 0.0 1027196
03:00+3св39840 0.0 1027176
06:00+3всв310852 0.0 1027243
09:00+8всв69570 0.0 1027839
12:00+11всв79436 0.0 10261428
15:00+12всв784627 0.0 10261749
18:00+8всв7106766 0.0 1028770
21:00+5всв61175100 0.0 1029662
19 апреля, пн
пн1900:00+4в51070100 0.0 1030672
03:00+3в51066100 0.0 1030523
06:00+2в5116790 0.0 1031507
09:00+4в695391 0.0 1031771
12:00+7в684295 0.0 10311379
15:00+9вюв784086 0.0 10311693
18:00+8вюв594393 0.0 10301558
21:00+4в51152100 0.0 1031430
20 апреля, вт
вт2000:00+3в51255100 0.0 1031509
03:00+1в51261100 0.0 1031402
06:00+1в6136249 0.0 1030467
09:00+5вюв7125123 0.0 1029807
12:00+9вюв9124599 0.0 10281375
15:00+10вюв91243100 0.0 10251502
18:00+9вюв81443100 0.0 10221274
21:00+7вюв91647100 0.0 10211019
21 апреля, ср
ср2100:00+6вюв91750100 0.0 1017991
03:00+4вюв101977100 1.5 1014967
06:00+4вюв101986100 0.9 1011946
09:00+5юв101987100 2.6 1009996
12:00+6вюв102088100 0.0 10071212
15:00+8ююв122186100 0.4 10061670
18:00+8ю111977100 0.6 10071441
21:00+7ю91681100 0.7 10091224